This is the latest recevied weather packets stored in our database for station/object KD0RII. If no packets are shown the sender has not sent any weather packets the latest 1 day(s).
| Time | Temp. | Humidity | Pressure | Rain* | Wind** | Luminosity | Snow |
|---|---|---|---|---|---|---|---|
| 1778033514 | 9.44° C | 89% | 1014.4 hPa | 0 mm | - | 0 W/m² | - |
| 1778033211 | 9.44° C | 89% | 1014.2 hPa | 0 mm | - | 0 W/m² | - |
| 1778032606 | 9.44° C | 88% | 1014.2 hPa | 0 mm | - | 0 W/m² | - |
| 1778032303 | 9.44° C | 88% | 1014 hPa | 0 mm | - | 0 W/m² | - |
| 1778032001 | 9.44° C | 87% | 1013.8 hPa | 0 mm | - | 0 W/m² | - |
| 1778031696 | 9.44° C | 87% | 1013.8 hPa | 0 mm | - | 0 W/m² | - |
| 1778030787 | 10° C | 86% | 1013.6 hPa | 0 mm | - | 1 W/m² | - |
| 1778030484 | 10.56° C | 86% | 1013.6 hPa | 0 mm | - | 1 W/m² | - |
| 1778030182 | 10.56° C | 85% | 1013.5 hPa | 0 mm | - | 3 W/m² | - |
| 1778029877 | 10.56° C | 85% | 1013.2 hPa | 0 mm | - | 6 W/m² | - |
| 1778029572 | 11.11° C | 84% | 1013.5 hPa | 0 mm | - | 9 W/m² | - |
| 1778029268 | 11.11° C | 84% | 1013.6 hPa | 0 mm | - | 12 W/m² | - |
| 1778028965 | 11.11° C | 83% | 1013.2 hPa | 0 mm | - | 15 W/m² | - |
| 1778028661 | 11.11° C | 83% | 1013.2 hPa | 0 mm | - | 13 W/m² | - |
| 1778028055 | 11.11° C | 82% | 1013.5 hPa | 0 mm | - | 17 W/m² | - |
| 1778027448 | 11.67° C | 81% | 1013.1 hPa | 0 mm | - | 36 W/m² | - |
| 1778026840 | 11.67° C | 79% | 1013.7 hPa | 0 mm | - | 38 W/m² | - |
| 1778024417 | 11.67° C | 78% | 1013.2 hPa | 0 mm | - | 99 W/m² | - |
| 1778019266 | 11.11° C | 82% | 1013.2 hPa | 0 mm | - | 143 W/m² | - |
| 1778018357 | 11.11° C | 86% | 1013.1 hPa | 0 mm | - | 154 W/m² | - |
| 1778017753 | 11.11° C | 86% | 1013.5 hPa | 0 mm | - | 143 W/m² | - |
| 1778014722 | 10° C | 92% | 1013.5 hPa | 0 mm | - | 156 W/m² | - |
| 1778013208 | 10° C | 92% | 1013.9 hPa | 0 mm | - | 232 W/m² | - |
| 1778011390 | 8.89° C | 93% | 1013.9 hPa | 0 mm | - | 156 W/m² | - |
| 1778011090 | 8.89° C | 93% | 1013.8 hPa | 0 mm | - | 106 W/m² | - |
* Rain latest hour (hover to see other rain measurements)
** Current wind speed in m/s (hover to see current wind gust speed)